Dauntless Aviation
Greetings, Guest! To participate, [sign up for a free account] or [log in]
Airports Europe United Kingdom
EGLC
LCY

London City

London, UNITED KINGDOM

Airport Info
Edit

Location

Latitude / Longitude: 51°30'18"N / 0°3'12"E
  51°30.3'N / 0°3.21'E
  51.5050 / 0.0535

Nearby radio navigation aids

LCY CITY NDB on field.

Runway Information

Runway 10 /28

Dimensions: 4948 x 98 ft.
Surface: ASP
 
Runway 10
Runway 28
Latitude: 51.505528 51.504922
Longitude: 0.045753 0.064953
Elevation: 16 ft. 16 ft.
Runway true heading: 91.1 271.1
 

Instrument Procedures

  Aerodrome Chart
  Aircraft Parking/Docking Chart
  Control Zone and Control Area Chart

STARs (Standard Terminal Arrivals)

  STAR LONDON/City via SPEAR (East)
  STAR LONDON/City via ALKIN (South)
  STAR LONDON/City via SPEAR (Northwest)
  STAR LONDON/City via SPEAR (West)
  STAR LONDON/City via SPEAR (Alternate Holding at LOGAN and ALKIN) Chart

IAPs (Instrument Approach Procedures)

  ILS (5.5anddeg; GP) /DME/NDB (L) Rwy 09 (Aircraft Cat A and#44; B and#44; C)
  LOC/DME/NDB (L) Rwy 09 (Aircraft Cat A and#44; B and#44; C)
  Visual Approach Profile LONDON/City Rwy 09 (Aircraft Cat A and#44; B and#44; C)
  LONDON/City ILS (5.5anddeg; GP) /DME/NDB (L) Rwy 27 (Aircraft Cat A and#44; B and#44; C)
  LONDON/City LOC/DME/NDB (L) Rwy 27 (Aircraft Cat A and#44; B and#44; C)
  Visual Approach Profile LONDON/City Rwy 27 (Aircraft Cat A and#44; B and#44; C)
  ATC Surveillance Minimum Altitude Chart
  London City Aerodrome - Textual Data

Departure Procedures

  SID lONDON/City SOUTHAMPTON
  SID LONDON/City DOVER/LYDD
  SID LONDON/City CLACTON
  SID - Instrument (SID) LONDON/City BROOKMANS PARK/COMPTON
Satellite photo at:
Airport distance calculator
From:
Weather Reports

METAR

EGLC

EGLC 231120Z 05008KT 020V080 9999 SCT024 24/17 Q1019
EGKB
11.4nm S
EGKB 231120Z 03010KT 350V070 9999 SCT018 22/16 Q1020
EGLL
18.9nm SW
EGLL 231120Z 06008KT 010V110 9999 SCT027 25/16 Q1020 NOSIG
EGSS
23.5nm N
EGSS 231120Z 04011KT 9999 BKN032 25/18 Q1020
EGKK
23.8nm S
EGKK 231120Z 06009KT 020V090 9999 FEW024 25/17 Q1019
EGMC
24.4nm NE
EGMC 231120Z 06009KT 9999 FEW025 25/18 Q1019

TAF

EGLC
TAF EGLC 230800Z 2309/2318 02008KT 9999 FEW020 PROB30 TEMPO 2309/2311 BKN014 BECMG 2312/2315 08010KT
EGKB
11.4nm S
TAF EGKB 230800Z 2309/2318 02008KT 8000 BKN010 BECMG 2309/2312 9999 FEW025 BECMG 2312/2315 08012KT
EGWU
17.8nm W
TAF EGWU 230737Z 2309/2403 04010KT 9999 SCT025
EGLL
18.9nm SW
TAF EGLL 230504Z 2306/2412 03007KT 9999 SCT040 PROB30 TEMPO 2306/2308 8000 BECMG 2311/2314 09010KT BECMG 2322/2401 03006KT PROB30 2404/2408 7000
EGSS
23.5nm N
TAF EGSS 230500Z 2306/2412 01006KT 6000 FEW040 BECMG 2306/2309 9999 PROB30 TEMPO 2306/2309 BKN004 BECMG 2309/2312 07012KT PROB30 TEMPO 2403/2408 8000 BKN009
EGKK
23.8nm S
TAF EGKK 230504Z 2306/2412 04008KT 9999 FEW040 PROB30 2306/2308 8000 BKN010 PROB30 2404/2407 8000 BKN010
Safelog

 

Dauntless Aviation

© 2007-2014 Dauntless Aviation, all rights reserved
Information provided via PilotNav comes from a variety of official and unofficial data sources. As errors are possible, do not use PilotNav for primary flight planning purposes. Verify any information that you receive via PilotNav with current and canonical charts and other official documents. The material in this database is subject to database copyrights held by Dauntless Aviation and may not be copied without the express permission of Dauntless Aviation - licenses for use of part of all of this data are available for purchase; enquire via the Dauntless Aviation helpdesk. A number of mechanisms and markers exist in the database to protect against and identify infringement / copyright. Automated queries against this website are stictly prohibited, and all activity is logged and analyzed.